TimeCDT,TemperatureF,Dew PointF,Humidity,Sea Level PressureIn,VisibilityMPH,Wind Direction,Wind SpeedMPH,Gust SpeedMPH,PrecipitationIn,Events,Conditions,WindDirDegrees,DateUTC
12:55 AM,57.9,36.0,44,29.98,10.0,South,4.6,-,N/A,,Clear,180,2012-09-30 05:55:00
1:55 AM,52.0,37.0,57,29.99,10.0,Calm,Calm,-,N/A,,Clear,0,2012-09-30 06:55:00
2:55 AM,50.0,36.0,59,29.98,10.0,SSE,4.6,-,N/A,,Clear,150,2012-09-30 07:55:00
3:55 AM,50.0,36.0,59,29.97,10.0,SSE,3.5,-,N/A,,Clear,160,2012-09-30 08:55:00
4:55 AM,48.9,36.0,61,29.97,10.0,SSE,4.6,-,N/A,,Clear,160,2012-09-30 09:55:00
5:55 AM,48.0,36.0,63,29.96,10.0,SSE,3.5,-,N/A,,Clear,150,2012-09-30 10:55:00
6:55 AM,46.9,36.0,66,29.96,10.0,SSE,4.6,-,N/A,,Clear,160,2012-09-30 11:55:00
7:55 AM,46.9,37.0,68,29.97,10.0,Calm,Calm,-,N/A,,Clear,0,2012-09-30 12:55:00
8:55 AM,52.0,37.0,57,29.98,10.0,South,5.8,-,N/A,,Clear,170,2012-09-30 13:55:00
9:55 AM,57.9,39.0,49,29.97,10.0,SSE,5.8,-,N/A,,Clear,160,2012-09-30 14:55:00
10:55 AM,66.9,42.1,40,29.96,10.0,SSE,5.8,-,N/A,,Clear,150,2012-09-30 15:55:00
11:55 AM,73.0,44.1,35,29.95,10.0,Variable,3.5,-,N/A,,Clear,0,2012-09-30 16:55:00
12:55 PM,80.1,41.0,25,29.93,10.0,SSE,6.9,-,N/A,,Clear,160,2012-09-30 17:55:00
1:55 PM,82.0,37.9,21,29.91,10.0,Variable,6.9,-,N/A,,Clear,0,2012-09-30 18:55:00
2:55 PM,82.9,36.0,19,29.90,10.0,SW,5.8,-,N/A,,Clear,230,2012-09-30 19:55:00
3:55 PM,84.0,37.9,19,29.89,10.0,Variable,3.5,-,N/A,,Clear,0,2012-09-30 20:55:00
4:55 PM,84.0,39.9,21,29.87,10.0,Calm,Calm,-,N/A,,Clear,0,2012-09-30 21:55:00
5:55 PM,82.9,41.0,23,29.86,10.0,SE,3.5,-,N/A,,Clear,140,2012-09-30 22:55:00
6:55 PM,75.0,43.0,32,29.88,10.0,West,9.2,-,N/A,,Clear,270,2012-09-30 23:55:00
7:55 PM,69.1,42.1,38,29.90,10.0,Calm,Calm,-,N/A,,Scattered Clouds,0,2012-10-01 00:55:00
8:55 PM,66.9,43.0,42,29.91,10.0,NNW,8.1,-,N/A,,Clear,330,2012-10-01 01:55:00
9:55 PM,64.9,46.9,52,29.92,10.0,North,5.8,-,N/A,,Partly Cloudy,10,2012-10-01 02:55:00
10:55 PM,64.0,46.9,54,29.94,10.0,West,6.9,-,N/A,,Overcast,280,2012-10-01 03:55:00
11:55 PM,64.0,54.0,70,29.97,10.0,North,8.1,-,0.01,Rain,Light Rain,360,2012-10-01 04:55:00